User: anonymous   Login
Location: Unspecified
(0.0000°N, 0.0000°E)
Time: 00:09:45
(UTC+00:00)
Language:

CARTOSAT-1 - Orbit

View from above orbital plane
View from above orbital plane
View from above satellite
View from above satellite

Ground track
Ground track

The orbit data is extracted from the following two-line orbital elements,

1 28649U 05017A   17323.49638484  .00000146  00000-0  24102-4 0  9998
2 28649  97.8473  35.3446 0000503 239.1653 120.9516 14.83456473679002
Epoch (UTC): 19 November 2017 11:54:47
Eccentricity: 0.0000503
inclination: 97.8473°
perigee height: 618 km
apogee height: 619 km
right ascension of ascending node: 35.3446°
argument of perigee: 239.1653°
revolutions per day: 14.83456473
mean anomaly at epoch: 120.9516°
orbit number at epoch: 67900

The dashed part of the orbit path shows where the satellite is in the earth's shadow,  

DLR